• în Republica Moldova
  • Lista ţărilor
  • Pe 7 zile
  • Temperatura apei
  • Hartă satelitară
  • Meteo pe hartă
  • Widget-uri
  • user-avatar
    Intrare

    Meteo pe oră la Innsbruck

    Astăzi, 17 Decembrie, Duminică

    Timp Temperatura Precipitaţii Vânt Presiune Umiditate
    00:00 -13°C° 0,4 mm 2 m/s 589 mmHg 94%
    01:00 -13°C° 0 mm 2 m/s 589 mmHg 94%
    02:00 -13°C° 0,4 mm 2 m/s 589 mmHg 93%
    03:00 -14°C° 0,4 mm 2 m/s 589 mmHg 93%
    04:00 -14°C° 0,4 mm 2 m/s 589 mmHg 93%
    05:00 -14°C° 0,4 mm 2 m/s 590 mmHg 93%
    06:00 -14°C° 0,4 mm 2 m/s 590 mmHg 93%
    07:00 -12°C° 0,4 mm 1 m/s 590 mmHg 93%
    08:00 -13°C° 0,5 mm 2 m/s 591 mmHg 93%
    09:00 -13°C° 0,5 mm 2 m/s 591 mmHg 93%
    10:00 -12°C° 0,5 mm 2 m/s 592 mmHg 93%
    11:00 -12°C° 0,6 mm 2 m/s 592 mmHg 92%
    12:00 -12°C° 0,6 mm 2 m/s 592 mmHg 90%
    13:00 -10°C° 0,6 mm 2 m/s 593 mmHg 89%
    14:00 -12°C° 0,3 mm 2 m/s 593 mmHg 91%
    15:00 -12°C° 0,3 mm 2 m/s 593 mmHg 92%
    16:00 -13°C° 0,3 mm 2 m/s 593 mmHg 93%
    17:00 -14°C° 0,1 mm 2 m/s 593 mmHg 94%
    18:00 -15°C° 0,1 mm 2 m/s 592 mmHg 94%
    19:00 -16°C° 0,1 mm 2 m/s 592 mmHg 95%
    20:00 -17°C° 0 mm 2 m/s 592 mmHg 94%
    21:00 -18°C° 0 mm 2 m/s 592 mmHg 93%
    22:00 -19°C° 0 mm 2 m/s 592 mmHg 92%
    23:00 -19°C° 0 mm 2 m/s 592 mmHg 90%

    Mâine, 18 Decembrie, Luni

    Timp Temperatura Precipitaţii Vânt Presiune Umiditate
    00:00 -19°C° 0 mm 2 m/s 592 mmHg 89%
    01:00 -19°C° 0 mm 2 m/s 592 mmHg 88%
    02:00 -19°C° 0 mm 2 m/s 592 mmHg 86%
    03:00 -19°C° 0 mm 2 m/s 591 mmHg 84%
    04:00 -19°C° 0 mm 2 m/s 591 mmHg 82%
    05:00 -18°C° 0 mm 2 m/s 591 mmHg 81%
    06:00 -17°C° 0 mm 2 m/s 592 mmHg 79%
    07:00 -16°C° 0 mm 2 m/s 592 mmHg 78%
    08:00 -13°C° 0,1 mm 1 m/s 592 mmHg 80%
    09:00 -12°C° 0,1 mm 1 m/s 592 mmHg 82%
    10:00 -10°C° 0,1 mm 1 m/s 593 mmHg 84%
    11:00 -10°C° 0,4 mm 1 m/s 593 mmHg 85%
    12:00 -9°C° 0,4 mm 1 m/s 593 mmHg 87%
    13:00 -8°C° 0,4 mm 1 m/s 593 mmHg 88%
    14:00 -8°C° 0,5 mm 1 m/s 593 mmHg 90%
    15:00 -8°C° 0,5 mm 1 m/s 593 mmHg 92%
    16:00 -8°C° 0,5 mm 1 m/s 593 mmHg 94%
    17:00 -8°C° 0,4 mm 1 m/s 593 mmHg 94%
    18:00 -9°C° 0,4 mm 1 m/s 593 mmHg 95%
    19:00 -9°C° 0,4 mm 1 m/s 593 mmHg 95%
    20:00 -9°C° 0,4 mm 1 m/s 594 mmHg 95%
    21:00 -10°C° 0,4 mm 2 m/s 594 mmHg 95%
    22:00 -10°C° 0,4 mm 2 m/s 595 mmHg 95%
    23:00 -10°C° 0,4 mm 2 m/s 595 mmHg 95%

    Poimâine, 19 Decembrie, Marţi

    Timp Temperatura Precipitaţii Vânt Presiune Umiditate
    00:00 -10°C° 0,4 mm 2 m/s 595 mmHg 95%
    01:00 -10°C° 0,4 mm 2 m/s 595 mmHg 95%
    02:00 -10°C° 0,4 mm 2 m/s 596 mmHg 95%
    03:00 -10°C° 0,4 mm 2 m/s 596 mmHg 95%
    04:00 -10°C° 0,4 mm 2 m/s 596 mmHg 95%
    05:00 -10°C° 0,4 mm 2 m/s 596 mmHg 95%
    06:00 -10°C° 0,4 mm 2 m/s 597 mmHg 95%
    07:00 -10°C° 0,4 mm 2 m/s 597 mmHg 95%
    08:00 -10°C° 0,3 mm 2 m/s 598 mmHg 95%
    09:00 -9°C° 0,3 mm 2 m/s 598 mmHg 94%
    10:00 -9°C° 0,3 mm 2 m/s 598 mmHg 94%
    11:00 -8°C° 0,2 mm 2 m/s 599 mmHg 93%
    12:00 -8°C° 0,2 mm 2 m/s 599 mmHg 92%
    13:00 -7°C° 0,2 mm 2 m/s 599 mmHg 91%
    14:00 -8°C° 0,1 mm 2 m/s 599 mmHg 92%
    15:00 -8°C° 0,1 mm 2 m/s 599 mmHg 93%
    16:00 -9°C° 0,1 mm 2 m/s 598 mmHg 94%
    17:00 -10°C° 0,1 mm 2 m/s 598 mmHg 94%
    18:00 -10°C° 0,1 mm 2 m/s 598 mmHg 94%
    19:00 -12°C° 0,1 mm 2 m/s 598 mmHg 95%
    20:00 -12°C° 0,5 mm 2 m/s 598 mmHg 94%
    21:00 -12°C° 0,5 mm 2 m/s 598 mmHg 94%
    22:00 -10°C° 0,5 mm 2 m/s 598 mmHg 94%
    23:00 -10°C° 0,9 mm 2 m/s 598 mmHg 94%

    20 Decembrie, Miercuri

    Timp Temperatura Precipitaţii Vânt Presiune Umiditate
    00:00 -10°C° 0,9 mm 2 m/s 598 mmHg 95%
    01:00 -10°C° 0,9 mm 2 m/s 598 mmHg 95%
    02:00 -10°C° 0,9 mm 2 m/s 597 mmHg 95%
    03:00 -10°C° 0,9 mm 2 m/s 597 mmHg 95%
    04:00 -9°C° 0,9 mm 2 m/s 597 mmHg 95%
    05:00 -9°C° 0,8 mm 2 m/s 597 mmHg 95%
    06:00 -9°C° 0,8 mm 2 m/s 597 mmHg 95%
    07:00 -9°C° 0,8 mm 2 m/s 597 mmHg 95%
    08:00 -9°C° 0,6 mm 2 m/s 598 mmHg 94%
    09:00 -8°C° 0,6 mm 2 m/s 598 mmHg 94%
    10:00 -8°C° 0,6 mm 2 m/s 599 mmHg 94%
    11:00 -7°C° 0,2 mm 2 m/s 599 mmHg 93%
    12:00 -6°C° 0,2 mm 2 m/s 599 mmHg 92%
    13:00 -6°C° 0,2 mm 2 m/s 599 mmHg 92%
    14:00 -6°C° 0,1 mm 2 m/s 599 mmHg 93%
    15:00 -6°C° 0,1 mm 2 m/s 599 mmHg 93%
    16:00 -7°C° 0,1 mm 2 m/s 599 mmHg 94%
    17:00 -8°C° 0,1 mm 2 m/s 599 mmHg 93%
    18:00 -8°C° 0,1 mm 2 m/s 599 mmHg 93%
    19:00 -9°C° 0,1 mm 2 m/s 599 mmHg 93%
    20:00 -8°C° 0,4 mm 2 m/s 599 mmHg 93%
    21:00 -8°C° 0,4 mm 2 m/s 600 mmHg 92%
    22:00 -7°C° 0,4 mm 2 m/s 600 mmHg 92%
    23:00 -7°C° 1,1 mm 2 m/s 601 mmHg 93%

    21 Decembrie, Joi

    Timp Temperatura Precipitaţii Vânt Presiune Umiditate
    00:00 -6°C° 1,1 mm 2 m/s 601 mmHg 94%
    01:00 -6°C° 1,1 mm 2 m/s 601 mmHg 94%
    02:00 -5°C° 1,2 mm 2 m/s 601 mmHg 95%
    03:00 -5°C° 1,2 mm 2 m/s 601 mmHg 95%
    04:00 -5°C° 1,2 mm 2 m/s 601 mmHg 95%
    05:00 -5°C° 1,5 mm 2 m/s 601 mmHg 95%
    06:00 -5°C° 1,5 mm 2 m/s 601 mmHg 95%
    07:00 -4°C° 1,5 mm 2 m/s 601 mmHg 95%
    08:00 -4°C° 1 mm 2 m/s 601 mmHg 95%
    09:00 -4°C° 1 mm 2 m/s 602 mmHg 95%
    10:00 -3°C° 1 mm 2 m/s 602 mmHg 95%
    11:00 -3°C° 0,8 mm 2 m/s 602 mmHg 96%
    12:00 -3°C° 0,8 mm 2 m/s 602 mmHg 97%
    13:00 -2°C° 0,8 mm 2 m/s 602 mmHg 98%
    14:00 -3°C° 0,5 mm 2 m/s 602 mmHg 97%
    15:00 -3°C° 0,5 mm 2 m/s 601 mmHg 97%
    16:00 -3°C° 0,5 mm 2 m/s 601 mmHg 96%
    17:00 -3°C° 0,4 mm 2 m/s 601 mmHg 96%
    18:00 -3°C° 0,4 mm 2 m/s 601 mmHg 95%
    19:00 -4°C° 0,4 mm 2 m/s 601 mmHg 95%
    20:00 -4°C° 0,5 mm 2 m/s 601 mmHg 95%
    21:00 -4°C° 0,5 mm 2 m/s 601 mmHg 95%
    22:00 -4°C° 0,5 mm 2 m/s 601 mmHg 95%
    23:00 -4°C° 0,3 mm 2 m/s 601 mmHg 95%

    22 Decembrie, Vineri

    Timp Temperatura Precipitaţii Vânt Presiune Umiditate
    00:00 -4°C° 0,3 mm 2 m/s 600 mmHg 94%
    01:00 -2°C° 0,3 mm 1 m/s 600 mmHg 94%
    02:00 -4°C° 0,1 mm 2 m/s 600 mmHg 95%
    03:00 -4°C° 0,1 mm 2 m/s 599 mmHg 95%
    04:00 -5°C° 0,1 mm 2 m/s 599 mmHg 95%
    05:00 -5°C° 0,2 mm 2 m/s 599 mmHg 95%
    06:00 -5°C° 0,2 mm 2 m/s 598 mmHg 95%
    07:00 -5°C° 0,2 mm 2 m/s 598 mmHg 95%
    08:00 -4°C° 0,4 mm 2 m/s 598 mmHg 95%
    09:00 -4°C° 0,4 mm 2 m/s 598 mmHg 95%
    10:00 -4°C° 0,4 mm 2 m/s 598 mmHg 95%
    11:00 -4°C° 0,8 mm 2 m/s 598 mmHg 95%
    12:00 -5°C° 0,8 mm 3 m/s 598 mmHg 95%
    13:00 -5°C° 0,8 mm 3 m/s 598 mmHg 96%
    14:00 -5°C° 0,8 mm 3 m/s 598 mmHg 95%
    15:00 -6°C° 0,8 mm 3 m/s 598 mmHg 95%
    16:00 -7°C° 0,8 mm 3 m/s 598 mmHg 95%
    17:00 -7°C° 0,4 mm 3 m/s 599 mmHg 95%
    18:00 -8°C° 0,4 mm 3 m/s 599 mmHg 96%
    19:00 -9°C° 0,4 mm 3 m/s 599 mmHg 96%
    20:00 -8°C° 0,2 mm 2 m/s 599 mmHg 96%
    21:00 -9°C° 0,2 mm 2 m/s 599 mmHg 95%
    22:00 -9°C° 0,2 mm 2 m/s 599 mmHg 95%
    23:00 -10°C° 0,3 mm 2 m/s 599 mmHg 95%
    Arată mai mult

    XHprof extension not loaded